Location: Newark
(41.6500°N, 71.4833°W)
Time: 00:57:11
(UTC+00:00)

Courier 1B - Pass Details

Date: 24 January 2020
Orbit: 962 x 1209 km, 28.3° (Epoch: 20 February)

Event Time Altitude Azimuth Distance (km) Brightness Sun altitude
Rises 13:23:43 0° 256° (WSW) 4,087 10.4 11.5°
Reaches altitude 10° 13:28:40 10° 229° (SW) 3,138 10.1 12.2°
Maximum altitude 13:31:38 12° 207° (SSW) 2,951 10.3 12.7°
Drops below altitude 10° 13:34:35 10° 184° (S) 3,133 10.8 13.1°
Sets 13:39:33 0° 157° (SSE) 4,073 12.0 13.8°
